| time (UTC) | temp F | wind direction | speed MPH | gust MPH | rain 1hr in | rain 24hr in | rain mn in | humidity % | barometer mb |
| 20260903000027 | 69 | 360 | 0.0 | 0.0 | 0.00 | 0.00 | 0.00 | 73 | 1018.2 |
| 20260902234528 | 69 | 360 | 0.0 | 1.0 | 0.00 | 0.00 | 0.00 | 73 | 1018.6 |
| 20260902233024 | 69 | 212 | 0.0 | 1.0 | 0.00 | 0.00 | 0.00 | 73 | 1018.7 |
| 20260902231525 | 70 | 214 | 0.0 | 0.0 | 0.00 | 0.00 | 0.00 | 71 | 1018.7 |
| 20260902230022 | 70 | 203 | 0.0 | 0.0 | 0.00 | 0.00 | 0.00 | 71 | 1019.0 |
| 20260902224521 | 70 | 215 | 0.0 | 1.0 | 0.00 | 0.01 | 0.00 | 69 | 1018.9 |
| 20260902223037 | 71 | 189 | 0.0 | 0.0 | 0.00 | 0.01 | 0.00 | 69 | 1018.9 |
| 20260902221522 | 71 | 231 | 0.0 | 0.0 | 0.00 | 0.01 | 0.00 | 68 | 1018.6 |
| 20260902220020 | 72 | 319 | 0.0 | 0.0 | 0.00 | 0.01 | 0.00 | 67 | 1018.3 |
| 20260902214519 | 73 | 280 | 0.0 | 2.0 | 0.00 | 0.03 | 0.00 | 68 | 1018.2 |
| 20260902213019 | 73 | 297 | 0.0 | 1.0 | 0.00 | 0.03 | 0.00 | 68 | 1018.0 |
| 20260902211520 | 74 | 117 | 0.0 | 2.0 | 0.00 | 0.03 | 0.00 | 67 | 1018.2 |
| 20260902210017 | 74 | 333 | 0.0 | 1.0 | 0.00 | 0.04 | 0.00 | 66 | 1018.5 |
| 20260902204531 | 75 | 204 | 0.0 | 0.0 | 0.00 | 0.04 | 0.00 | 67 | 1018.6 |
| 20260902203015 | 75 | 200 | 0.0 | 0.0 | 0.00 | 0.04 | 0.00 | 66 | 1018.6 |
| 20260902201514 | 75 | 198 | 0.0 | 1.0 | 0.00 | 0.04 | 0.00 | 64 | 1018.5 |
| 20260902200011 | 76 | 242 | 0.0 | 2.0 | 0.00 | 0.12 | 0.00 | 62 | 1018.5 |
| 20260902194510 | 78 | 215 | 0.0 | 2.0 | 0.00 | 0.12 | 0.00 | 62 | 1018.8 |
| 20260902193008 | 79 | 189 | 0.0 | 4.0 | 0.00 | 0.12 | 0.00 | 59 | 1018.8 |
| 20260902191506 | 79 | 207 | 0.0 | 3.0 | 0.00 | 0.12 | 0.00 | 60 | 1018.7 |
| 20260902190006 | 80 | 209 | 0.0 | 3.0 | 0.00 | 0.18 | 0.00 | 59 | 1018.9 |
| 20260902184501 | 79 | 183 | 1.0 | 3.0 | 0.00 | 0.18 | 0.00 | 60 | 1019.0 |
| 20260902183111 | 79 | 231 | 0.0 | 3.0 | 0.00 | 0.18 | 0.00 | 61 | 1018.9 |
| 20260902181612 | 79 | 306 | 0.0 | 2.0 | 0.00 | 0.18 | 0.00 | 61 | 1018.7 |
| 20260902180056 | 78 | 121 | 0.0 | 3.0 | 0.00 | 0.18 | 0.00 | 61 | 1018.9 |
| 20260902174557 | 79 | 228 | 0.0 | 1.0 | 0.00 | 0.27 | 0.00 | 59 | 1019.0 |
| 20260902173101 | 78 | 179 | 0.0 | 2.0 | 0.00 | 0.27 | 0.00 | 62 | 1018.9 |
| 20260902171549 | 77 | 350 | 0.0 | 2.0 | 0.00 | 0.27 | 0.00 | 66 | 1019.0 |
| 20260902170051 | 77 | 179 | 0.0 | 3.0 | 0.00 | 0.27 | 0.00 | 66 | 1019.2 |
| 20260902164544 | 76 | 219 | 0.0 | 1.0 | 0.00 | 0.27 | 0.00 | 68 | 1019.3 |
| 20260902163044 | 76 | 11 | 0.0 | 1.0 | 0.00 | 0.27 | 0.00 | 68 | 1019.4 |
| 20260902161539 | 75 | 321 | 0.0 | 1.0 | 0.00 | 0.27 | 0.00 | 70 | 1019.4 |
| 20260902160037 | 74 | 4 | 0.0 | 2.0 | 0.00 | 0.27 | 0.00 | 69 | 1019.7 |
| 20260902154538 | 73 | 31 | 0.0 | 1.0 | 0.00 | 0.48 | 0.00 | 71 | 1020.0 |
| 20260902153034 | 73 | 244 | 0.0 | 1.0 | 0.00 | 0.48 | 0.00 | 70 | 1019.9 |
| 20260902151536 | 73 | 360 | 0.0 | 2.0 | 0.00 | 0.48 | 0.00 | 72 | 1020.1 |
| 20260902150029 | 72 | 285 | 0.0 | 1.0 | 0.00 | 0.48 | 0.00 | 72 | 1019.9 |
| 20260902144526 | 71 | 323 | 0.0 | 5.0 | 0.00 | 0.79 | 0.00 | 76 | 1020.1 |
| 20260902143023 | 70 | 351 | 0.0 | 4.0 | 0.00 | 0.79 | 0.00 | 81 | 1019.8 |
| 20260902141521 | 70 | 334 | 2.0 | 4.0 | 0.00 | 0.79 | 0.00 | 81 | 1019.7 |
| 20260902140020 | 69 | 349 | 0.0 | 1.0 | 0.00 | 0.79 | 0.00 | 83 | 1019.6 |
| 20260902134518 | 69 | 338 | 0.0 | 1.0 | 0.00 | 0.96 | 0.00 | 85 | 1019.2 |
| 20260902133015 | 68 | 344 | 0.0 | 3.0 | 0.00 | 0.96 | 0.00 | 85 | 1019.1 |
| 20260902131513 | 68 | 8 | 2.0 | 4.0 | 0.00 | 0.96 | 0.00 | 86 | 1019.1 |
| 20260902130012 | 67 | 315 | 0.0 | 2.0 | 0.00 | 1.04 | 0.00 | 87 | 1019.3 |
| 20260902124510 | 67 | 342 | 0.0 | 4.0 | 0.00 | 1.04 | 0.00 | 88 | 1019.4 |
| 20260902123008 | 66 | 340 | 0.0 | 3.0 | 0.00 | 1.04 | 0.00 | 90 | 1019.5 |
| 20260902121506 | 66 | 12 | 0.0 | 0.0 | 0.00 | 1.04 | 0.00 | 91 | 1019.4 |
| 20260902120003 | 65 | 4 | 0.0 | 3.0 | 0.00 | 1.04 | 0.00 | 93 | 1019.6 |
| 20260902114502 | 65 | 351 | 0.0 | 3.0 | 0.00 | 1.04 | 0.00 | 94 | 1019.8 |
| 20260902113057 | 64 | 356 | 0.0 | 0.0 | 0.00 | 1.04 | 0.00 | 94 | 1019.7 |
| 20260902111558 | 64 | 347 | 0.0 | 0.0 | 0.00 | 1.04 | 0.00 | 95 | 1019.5 |
| 20260902110059 | 63 | 351 | 0.0 | 0.0 | 0.00 | 1.04 | 0.00 | 95 | 1019.5 |
| 20260902104602 | 63 | 351 | 0.0 | 0.0 | 0.00 | 1.04 | 0.00 | 95 | 1019.2 |
| 20260902103105 | 62 | 351 | 0.0 | 0.0 | 0.00 | 1.04 | 0.00 | 95 | 1019.1 |
| 20260902101554 | 62 | 351 | 0.0 | 0.0 | 0.00 | 1.04 | 0.00 | 95 | 1018.9 |
| 20260902100046 | 62 | 351 | 0.0 | 0.0 | 0.00 | 1.04 | 0.00 | 95 | 1018.8 |
| 20260902094544 | 62 | 353 | 0.0 | 0.0 | 0.00 | 1.04 | 0.00 | 95 | 1018.7 |
| 20260902093042 | 62 | 346 | 0.0 | 0.0 | 0.00 | 1.04 | 0.00 | 95 | 1018.5 |
| 20260902091542 | 62 | 346 | 0.0 | 0.0 | 0.00 | 1.04 | 0.00 | 95 | 1018.4 |
| 20260902090042 | 62 | 346 | 0.0 | 0.0 | 0.00 | 1.04 | 0.00 | 95 | 1018.4 |
| 20260902084542 | 61 | 346 | 0.0 | 0.0 | 0.00 | 1.04 | 0.00 | 94 | 1018.4 |
| 20260902083044 | 61 | 343 | 0.0 | 0.0 | 0.00 | 1.04 | 0.00 | 94 | 1018.3 |
| 20260902081539 | 61 | 344 | 0.0 | 0.0 | 0.00 | 1.04 | 0.00 | 94 | 1018.2 |
| 20260902080040 | 61 | 344 | 0.0 | 0.0 | 0.00 | 1.04 | 0.00 | 93 | 1018.2 |
| 20260902074538 | 62 | 351 | 0.0 | 0.0 | 0.00 | 1.04 | 0.00 | 93 | 1018.3 |
| 20260902073036 | 62 | 349 | 0.0 | 0.0 | 0.00 | 1.04 | 0.00 | 92 | 1018.4 |
| 20260902071534 | 62 | 348 | 0.0 | 0.0 | 0.00 | 1.04 | 0.00 | 93 | 1018.3 |
| 20260902070033 | 62 | 343 | 0.0 | 0.0 | 0.00 | 1.04 | 0.00 | 94 | 1018.2 |
| 20260902064533 | 62 | 358 | 0.0 | 0.0 | 0.00 | 1.04 | 0.00 | 94 | 1018.2 |
| 20260902063050 | 62 | 358 | 0.0 | 0.0 | 0.00 | 1.04 | 0.00 | 94 | 1017.9 |
| 20260902061550 | 62 | 358 | 0.0 | 0.0 | 0.00 | 1.04 | 0.00 | 95 | 1018.1 |
| 20260902060038 | 62 | 358 | 0.0 | 0.0 | 0.00 | 1.04 | 0.00 | 95 | 1017.8 |
| 20260902054531 | 62 | 358 | 0.0 | 0.0 | 0.00 | 1.04 | 0.00 | 96 | 1017.8 |
| 20260902053034 | 62 | 358 | 0.0 | 0.0 | 0.00 | 1.04 | 0.00 | 96 | 1017.7 |
| 20260902051528 | 61 | 358 | 0.0 | 2.0 | 0.00 | 1.04 | 0.00 | 96 | 1017.7 |
| 20260902050026 | 61 | 353 | 0.0 | 0.0 | 0.00 | 1.04 | 0.00 | 97 | 1017.5 |
| 20260902044551 | 61 | 340 | 0.0 | 0.0 | 0.00 | 1.04 | 0.00 | 97 | 1017.5 |
| 20260902043022 | 61 | 343 | 0.0 | 0.0 | 0.00 | 1.04 | 0.00 | 96 | 1017.6 |
| 20260902041522 | 61 | 343 | 0.0 | 0.0 | 0.00 | 1.04 | 0.00 | 96 | 1017.7 |
| 20260902040018 | 62 | 343 | 0.0 | 0.0 | 0.00 | 1.04 | 1.04 | 96 | 1017.5 |
| 20260902034516 | 62 | 343 | 0.0 | 0.0 | 0.00 | 1.04 | 1.04 | 96 | 1017.2 |
| 20260902033015 | 62 | 343 | 0.0 | 0.0 | 0.00 | 1.04 | 1.04 | 96 | 1017.1 |
| 20260902031534 | 62 | 340 | 0.0 | 0.0 | 0.00 | 1.04 | 1.04 | 96 | 1017.1 |
| 20260902030011 | 62 | 340 | 0.0 | 0.0 | 0.00 | 1.04 | 1.04 | 96 | 1017.1 |
| 20260902024511 | 62 | 340 | 0.0 | 0.0 | 0.00 | 1.04 | 1.04 | 96 | 1016.9 |
| 20260902023020 | 62 | 339 | 0.0 | 0.0 | 0.00 | 1.04 | 1.04 | 96 | 1016.9 |
| 20260902021508 | 62 | 327 | 0.0 | 0.0 | 0.00 | 1.04 | 1.04 | 97 | 1016.8 |
| 20260902020009 | 62 | 326 | 0.0 | 0.0 | 0.00 | 1.04 | 1.04 | 97 | 1016.7 |
| 20260902014513 | 62 | 326 | 0.0 | 0.0 | 0.00 | 1.04 | 1.04 | 96 | 1016.8 |
| 20260902013007 | 62 | 326 | 0.0 | 0.0 | 0.00 | 1.04 | 1.04 | 96 | 1016.6 |
| 20260902012507 | 62 | 326 | 0.0 | 0.0 | 0.00 | 1.04 | 1.04 | 96 | 1016.5 |
| 20260902012006 | 62 | 326 | 0.0 | 0.0 | 0.00 | 1.04 | 1.04 | 96 | 1016.7 |
| 20260902011506 | 62 | 326 | 0.0 | 0.0 | 0.00 | 1.04 | 1.04 | 96 | 1016.7 |
| 20260902011006 | 62 | 326 | 0.0 | 0.0 | 0.00 | 1.04 | 1.04 | 96 | 1016.7 |
| 20260902010505 | 62 | 327 | 0.0 | 0.0 | 0.00 | 1.04 | 1.04 | 96 | 1016.7 |
| 20260902010005 | 62 | 327 | 0.0 | 0.0 | 0.00 | 1.04 | 1.04 | 96 | 1016.7 |
| 20260902005505 | 62 | 326 | 0.0 | 0.0 | 0.00 | 1.04 | 1.04 | 96 | 1016.6 |
| 20260902005006 | 62 | 326 | 0.0 | 0.0 | 0.00 | 1.04 | 1.04 | 96 | 1016.5 |
| 20260902004505 | 62 | 326 | 0.0 | 0.0 | 0.00 | 1.04 | 1.04 | 96 | 1016.5 |
| 20260902004005 | 62 | 326 | 0.0 | 0.0 | 0.00 | 1.04 | 1.04 | 96 | 1016.6 |
| 20260902003508 | 62 | 326 | 0.0 | 0.0 | 0.00 | 1.04 | 1.04 | 96 | 1016.6 |
| 20260902003005 | 62 | 326 | 0.0 | 0.0 | 0.00 | 1.04 | 1.04 | 96 | 1016.8 |
| 20260902002506 | 62 | 326 | 0.0 | 0.0 | 0.00 | 1.04 | 1.04 | 97 | 1016.5 |
| 20260902002003 | 62 | 326 | 0.0 | 0.0 | 0.00 | 1.04 | 1.04 | 97 | 1016.5 |
| 20260902001503 | 62 | 326 | 0.0 | 0.0 | 0.00 | 1.04 | 1.04 | 96 | 1016.5 |
| 20260902001003 | 62 | 326 | 0.0 | 0.0 | 0.00 | 1.04 | 1.04 | 97 | 1016.5 |